Burlington, NC

7:25 PM EDT on April 23, 2018 (GMT -0400)
Burlington-Alamance Regional

Weather History for KBUY - March, 2014

Change the Weather History Date:

Tuesday, March 11, 2014

  Actual Average Record
Temperature  
Mean Temperature 57 °F -  
Max Temperature 79 °F 61 °F 83 °F (1967)
Min Temperature 35 °F 36 °F 17 °F (1960)
Degree Days  
Heating Degree Days 8    
Growing Degree Days 7 (Base 50)    
Moisture  
Dew Point 31 °F    
Average Humidity 41    
Maximum Humidity 85    
Minimum Humidity 14    
Precipitation  
Precipitation 0.00 in - - ()
Sea Level Pressure  
Sea Level Pressure 29.73 in    
Wind  
Wind Speed 4 mph (SW)    
Max Wind Speed 13 mph    
Max Gust Speed 21 mph    
Visibility 10 miles    
Events      
Averages and records for this station are not official NWS values.
T = Trace of Precipitation, MM = Missing Value Source: NWS Daily Summary

Daily Weather History Graph

Daily Weather History Graph

Search for Another Location

Airport or City:

Astronomy

Mar. 11, 2014 Rise Set
Actual Time 7:34 AM EDT 7:21 PM EDT
Civil Twilight 7:08 AM EDT 7:47 PM EDT
Nautical Twilight 6:39 AM EDT 8:17 PM EDT
Astronomical Twilight 6:09 AM EDT 8:47 PM EDT
Moon 3:03 PM EDT (3/11) 4:20 AM EDT (3/11)
Length of Visible Light 12h 38m
Length of Day
11h 47m
Waxing Gibbous, 78% of the Moon is Illuminated
Mar 11
Waxing Gibbous
Mar 16
Full
Mar 23
Last Quarter
Mar 30
New
Apr 7
First Quarter

Hourly Weather History & Observations

Time (EDT) Temp. Windchill Dew Point Humidity Pressure Visibility Wind Dir Wind Speed Gust Speed Precip Events Conditions
12:54 AM 50.0 °F - 33.1 °F 52% 29.80 in - SW 3.5 mph - N/A   Clear
1:54 AM 46.9 °F - 34.0 °F 61% 29.78 in - South 4.6 mph - N/A   Clear
2:54 AM 51.1 °F - 32.0 °F 48% 29.79 in - SW 4.6 mph - N/A   Clear
3:54 AM 43.0 °F 40.3 °F 33.1 °F 68% 29.78 in - WSW 4.6 mph - N/A   Clear
4:54 AM 44.1 °F 41.5 °F 33.1 °F 65% 29.76 in 10.0 mi WSW 4.6 mph - N/A   Clear
5:54 AM 43.0 °F - 33.1 °F 68% 29.76 in 10.0 mi Calm Calm - N/A   Clear
6:54 AM 39.0 °F - 33.1 °F 79% 29.77 in 10.0 mi Calm Calm - N/A   Clear
7:54 AM 35.1 °F - 30.9 °F 85% 29.78 in 10.0 mi Calm Calm - N/A   Clear
8:54 AM 48.0 °F - 37.9 °F 68% 29.78 in 10.0 mi Calm Calm - N/A   Clear
9:54 AM - - - N/A% 29.79 in - WNW 8.1 mph - N/A   Clear
10:54 AM 68.0 °F - 33.1 °F 27% 29.79 in 10.0 mi West 12.7 mph 20.7 mph N/A   Clear
11:54 AM 71.1 °F - 30.0 °F 22% 29.78 in 10.0 mi Variable 3.5 mph - N/A   Clear
12:54 PM 73.9 °F - 28.9 °F 19% 29.75 in 10.0 mi Variable 6.9 mph - N/A   Clear
1:54 PM 75.9 °F - 28.0 °F 17% 29.72 in 10.0 mi SSW 5.8 mph - N/A   Clear
2:54 PM 78.1 °F - 26.1 °F 15% 29.68 in 10.0 mi SSW 10.4 mph - N/A   Clear
3:54 PM 79.0 °F - 25.0 °F 14% 29.67 in 10.0 mi SSW 12.7 mph 20.7 mph N/A   Clear
4:54 PM 78.1 °F - 27.0 °F 15% 29.66 in 10.0 mi SW 6.9 mph - N/A   Clear
5:54 PM 77.0 °F - 25.0 °F 15% 29.65 in 10.0 mi SW 9.2 mph - N/A   Clear
6:54 PM 73.0 °F - 30.0 °F 20% 29.67 in 10.0 mi SSW 6.9 mph - N/A   Clear
7:54 PM 69.1 °F - 30.9 °F 24% 29.68 in 10.0 mi SSW 4.6 mph - N/A   Clear
8:54 PM 66.0 °F - 32.0 °F 28% 29.69 in 10.0 mi Calm Calm - N/A   Clear
9:54 PM 55.9 °F - 36.0 °F 47% 29.69 in 10.0 mi Calm Calm - N/A   Clear
10:54 PM 55.0 °F - 36.0 °F 49% 29.69 in 10.0 mi Calm Calm - N/A   Clear
11:54 PM 55.9 °F - 36.0 °F 47% 29.67 in 10.0 mi Calm Calm - N/A   Clear